Location: Newark
(42.8481°N, 0.4872°E)
Time: 23:52:56
(UTC+00:00)

Transit 2A - Pass Details

Date: 31 October 2020
Orbit: 595 x 963 km, 66.7° (Epoch: 03 December)

Event Time Altitude Azimuth Distance (km) Brightness Sun altitude
Rises 08:36:44 0° 331° (NNW) 3,448 8.8 18.9°
Reaches altitude 10° 08:39:24 10° 336° (NNW) 2,451 8.1 19.2°
Maximum altitude 08:44:53 54° 54° (NE) 939 6.9 20.0°
Drops below altitude 10° 08:49:48 10° 131° (SE) 2,192 10.7 20.6°
Sets 08:52:04 0° 136° (SE) 3,053 10.7 20.9°
